San Antonio, TX

8:56 AM CST on February 19, 2017 (GMT -0600)
San Antonio International

Weather History for KSAT - October, 2012

Change the Weather History Date:

Saturday, October 27, 2012

  Actual Average Record
Temperature  
Mean Temperature 56 °F 68 °F  
Max Temperature 64 °F 79 °F 91 °F (1980)
Min Temperature 48 °F 57 °F 34 °F (1957)
Degree Days  
Heating Degree Days 9 2  
Month to date heating degree days 32 20  
Since 1 July heating degree days 32 22  
Cooling Degree Days 0 5  
Month to date cooling degree days 238 201  
Year to date cooling degree days 3478 3035  
Growing Degree Days 6 (Base 50)    
Moisture  
Dew Point 33 °F    
Average Humidity 43    
Maximum Humidity 56    
Minimum Humidity 30    
Precipitation  
Precipitation 0.00 in 0.11 in 1.08 in (1899)
Month to date precipitation 2.40 3.66  
Year to date precipitation 38.76 27.63  
Snow  
Snow 0.00 in - - ()
Month to date snowfall 0.0  
Since 1 July snowfall 0.0  
Since 1 September snowfall 0.0  
Snow Depth 0.00 in    
Sea Level Pressure  
Sea Level Pressure 30.19 in    
Wind  
Wind Speed 9 mph (NNE)    
Max Wind Speed 17 mph    
Max Gust Speed 23 mph    
Visibility 10 miles    
Events      
T = Trace of Precipitation, MM = Missing Value Source: NWS Daily Summary

Daily Weather History Graph

Daily Weather History Graph

Search for Another Location

Airport or City:

Trip Planner

Search our weather history database for the weather conditions in past years. The results will help you decide how hot, cold, wet, or windy it might be!

Date:

Astronomy

Oct. 27, 2012 Rise Set
Actual Time 7:43 AM CDT 6:51 PM CDT
Civil Twilight 7:19 AM CDT 7:15 PM CDT
Nautical Twilight 6:51 AM CDT 7:43 PM CDT
Astronomical Twilight 6:23 AM CDT 8:11 PM CDT
Moon 5:33 PM CDT (10/27) 5:46 AM CDT (10/27)
Length of Visible Light 11h 56m
Length of Day
11h 07m
Waxing Gibbous, 96% of the Moon is Illuminated
Oct 27
Waxing Gibbous
Oct 29
Full
Nov 6
Last Quarter
Nov 13
New
Nov 20
First Quarter

Hourly Weather History & Observations

Time (CDT) Temp. Dew Point Humidity Pressure Visibility Wind Dir Wind Speed Gust Speed Precip Events Conditions
12:53 AM 51.1 °F 34.0 °F 52% 30.23 in 10.0 mi NNE 12.7 mph 23.0 mph N/A   Overcast
1:53 AM 51.1 °F 34.0 °F 52% 30.23 in 10.0 mi North 11.5 mph 18.4 mph N/A   Mostly Cloudy
2:53 AM 50.0 °F 33.1 °F 52% 30.22 in 10.0 mi NNE 12.7 mph - N/A   Overcast
3:53 AM 48.9 °F 33.1 °F 54% 30.20 in 10.0 mi North 10.4 mph 18.4 mph N/A   Overcast
4:53 AM 48.0 °F 32.0 °F 54% 30.22 in 10.0 mi NNE 12.7 mph 20.7 mph N/A   Overcast
5:53 AM 48.9 °F 33.1 °F 54% 30.23 in 10.0 mi North 10.4 mph - N/A   Overcast
6:53 AM 48.9 °F 32.0 °F 52% 30.23 in 10.0 mi NNE 10.4 mph - N/A   Overcast
7:53 AM 48.9 °F 32.0 °F 52% 30.25 in 10.0 mi North 10.4 mph - N/A   Overcast
8:53 AM 50.0 °F 30.9 °F 48% 30.27 in 10.0 mi North 10.4 mph 20.7 mph N/A   Overcast
9:53 AM 52.0 °F 33.1 °F 49% 30.27 in 10.0 mi North 11.5 mph 19.6 mph N/A   Overcast
10:53 AM 54.0 °F 33.1 °F 45% 30.27 in 10.0 mi North 11.5 mph - N/A   Scattered Clouds
11:53 AM 54.0 °F 33.1 °F 45% 30.24 in 10.0 mi NNE 15.0 mph - N/A   Partly Cloudy
12:53 PM 59.0 °F 33.1 °F 38% 30.22 in 10.0 mi North 16.1 mph - N/A   Mostly Cloudy
1:53 PM 61.0 °F 33.1 °F 35% 30.18 in 10.0 mi Variable 6.9 mph - N/A   Mostly Cloudy
2:53 PM 62.1 °F 30.9 °F 31% 30.15 in 10.0 mi North 12.7 mph 17.3 mph N/A   Overcast
3:53 PM 62.1 °F 33.1 °F 34% 30.13 in 10.0 mi North 9.2 mph - N/A   Mostly Cloudy
4:53 PM 62.1 °F 30.9 °F 31% 30.12 in 10.0 mi NNE 5.8 mph - N/A   Mostly Cloudy
5:53 PM 60.1 °F 33.1 °F 36% 30.11 in 10.0 mi North 8.1 mph - N/A   Mostly Cloudy
6:53 PM 55.9 °F 34.0 °F 44% 30.12 in 10.0 mi North 3.5 mph - N/A   Partly Cloudy
7:53 PM 57.9 °F 39.0 °F 49% 30.14 in 10.0 mi Calm Calm - N/A   Mostly Cloudy
8:53 PM 59.0 °F 35.1 °F 41% 30.14 in 10.0 mi NNE 8.1 mph - N/A   Overcast
9:53 PM 57.9 °F 34.0 °F 41% 30.15 in 10.0 mi NNE 5.8 mph - N/A   Overcast
10:53 PM 57.9 °F 35.1 °F 42% 30.17 in 10.0 mi NE 3.5 mph - N/A   Overcast
11:53 PM 57.0 °F 37.0 °F 47% 30.18 in 10.0 mi North 3.5 mph - N/A   Overcast